Location: Beadle
(51.4667°N, 109.0000°W)
Time: 08:51:33
(UTC+00:00)

deb Explorer IX - Pass Details

Date: 01 June 2022
Orbit: 535 x 1068 km, 38.8° (Epoch: 04 July)

Event Time Altitude Azimuth Distance (km) Brightness Sun altitude
Rises 19:22:50 0° 256° (WSW) 3,828 ? 60.6°
Reaches altitude 10° 19:26:09 10° 244° (WSW) 2,833 ? 60.6°
Maximum altitude 19:31:28 24° 194° (SSW) 1,895 ? 60.5°
Drops below altitude 10° 19:36:24 10° 142° (SE) 2,598 ? 60.3°
Sets 19:39:17 0° 129° (SE) 3,445 ? 60.3°
